Location: Igri�s
(42.2144°N, 0.4320°W)
Time: 14:24:23
(UTC+00:00)

Cosmos 1633 Rocket - Pass Details

Date: 13 August 2020
Orbit: 606 x 624 km, 82.5° (Epoch: 24 September)

Event Time Altitude Azimuth Distance (km) Brightness Sun altitude
Rises 20:34:21 0° 193° (SSW) 2,892 6.3 -15.4°
Reaches altitude 10° 20:36:35 10° 195° (SSW) 1,990 5.4 -15.7°
Maximum altitude 20:40:59 68° 279° (W) 673 3.4 -16.4°
Drops below altitude 10° 20:45:24 10° 3° (N) 2,000 6.1 -17.0°
Sets 20:47:39 0° 6° (N) 2,909 7.0 -17.3°
